Location: Unnamed
(47.6264°N, 122.3366°W)
Time: 07:19:08
(UTC-07:00)

X-37B - Pass Details

Date: 26 June 2021
Orbit: 383 x 392 km, 45.0° (Epoch: 01 July)

Event Time Altitude Azimuth Distance (km) Brightness Sun altitude
Rises 00:00:52 0° 266° (W) 2,256 4.6 -17.2°
Reaches altitude 10° 00:02:58 10° 262° (W) 1,402 3.5 -17.3°
Enters shadow 00:05:26 43° 226° (SW) 553 1.1 -17.5°
